Location: Bosdarros
(43.2167°N, 0.3667°W)
Time: 07:00:31
(UTC+00:00)

Cosmos 1455 - Pass Details

Date: 22 April 2021
Orbit: 497 x 521 km, 82.5° (Epoch: 07 May)

Event Time Altitude Azimuth Distance (km) Brightness Sun altitude
Rises 19:40:01 0° 193° (SSW) 2,585 5.6 -8.8°
Reaches altitude 10° 19:42:09 10° 197° (SSW) 1,703 4.7 -9.2°
Maximum altitude 19:45:50 65° 279° (W) 553 2.6 -9.8°
Drops below altitude 10° 19:49:34 10° 2° (N) 1,710 5.2 -10.3°
Sets 19:51:42 0° 6° (N) 2,597 6.1 -10.7°
